Weather History for KVTN - December, 2012

Change the Weather History Date:

Sunday, December 16, 2012

  Actual Average Record
Temperature  
Mean Temperature 32 °F 23 °F  
Max Temperature 42 °F 36 °F 65 °F (1962)
Min Temperature 22 °F 10 °F -23 °F (1914)
Degree Days  
Heating Degree Days 33 42  
Month to date heating degree days 489 645  
Since 1 July heating degree days 1990 2263  
Cooling Degree Days 0 0  
Month to date cooling degree days 0 0  
Year to date cooling degree days 1303 821  
Moisture  
Dew Point 21 °F    
Average Humidity 69    
Maximum Humidity 92    
Minimum Humidity 45    
Precipitation  
Precipitation 0.00 in 0.01 in 0.78 in (1908)
Month to date precipitation 0.19 0.20  
Year to date precipitation 10.58 19.85  
Snow  
Snow 0.00 in 0.10 in 6.10 in (1981)
Month to date snowfall 0.7 2.6  
Since 1 July snowfall 11.4 10.2  
Snow Depth 0.00 in    
Sea Level Pressure  
Sea Level Pressure 29.77 in    
Wind  
Wind Speed 6 mph (SE)    
Max Wind Speed 14 mph    
Max Gust Speed 20 mph    
Visibility 10 miles    
Events      
T = Trace of Precipitation, MM = Missing Value Source: NWS Daily Summary

Daily Weather History Graph

Daily Weather History Graph

Search for Another Location

Airport or City:

Trip Planner

Search our weather history database for the weather conditions in past years. The results will help you decide how hot, cold, wet, or windy it might be!

Date:

Astronomy

Dec. 16, 2012 Rise Set
Actual Time 8:07 AM CST 5:09 PM CST
Civil Twilight 7:34 AM CST 5:41 PM CST
Nautical Twilight 6:59 AM CST 6:17 PM CST
Astronomical Twilight 6:24 AM CST 6:51 PM CST
Moon 10:37 AM CST (12/16) 9:30 PM CST (12/16)
Length of Visible Light 10h 06m
Length of Day
9h 02m
Waxing Crescent, 16% of the Moon is Illuminated
Dec 16
Waxing Crescent
Dec 19
First Quarter
Dec 28
Full
Jan 4
Last Quarter
Jan 11
New

Hourly Weather History & Observations

Time (CST) Temp. Windchill Dew Point Humidity Pressure Visibility Wind Dir Wind Speed Gust Speed Precip Events Conditions
12:52 AM 26.1 °F 20.5 °F 19.9 °F 78% 29.82 in 10.0 mi WNW 4.6 mph - N/A   Overcast
1:52 AM 24.1 °F - 19.0 °F 81% 29.81 in 10.0 mi Calm Calm - N/A   Overcast
2:52 AM 21.9 °F 17.2 °F 19.0 °F 89% 29.83 in 10.0 mi West 3.5 mph - N/A   Mostly Cloudy
3:52 AM 23.0 °F 17.0 °F 19.9 °F 88% 29.83 in 10.0 mi WSW 4.6 mph - N/A   Mostly Cloudy
4:52 AM 25.0 °F - 21.0 °F 85% 29.82 in 10.0 mi Calm Calm - N/A   Overcast
5:52 AM 25.0 °F - 21.0 °F 85% 29.82 in 10.0 mi Calm Calm - N/A   Overcast
6:52 AM 25.0 °F - 21.0 °F 85% 29.83 in 10.0 mi Calm Calm - N/A   Overcast
7:52 AM 25.0 °F - 21.9 °F 88% 29.83 in 10.0 mi Calm Calm - N/A   Overcast
8:52 AM 26.1 °F - 23.0 °F 88% 29.81 in 10.0 mi Calm Calm - N/A   Overcast
9:52 AM 28.0 °F 21.7 °F 23.0 °F 81% 29.82 in 10.0 mi SW 5.8 mph - N/A   Mostly Cloudy
10:52 AM 30.9 °F 23.5 °F 21.9 °F 69% 29.81 in 10.0 mi East 8.1 mph - N/A   Overcast
11:52 AM 34.0 °F 29.8 °F 19.0 °F 54% 29.78 in 10.0 mi ESE 4.6 mph - N/A   Mostly Cloudy
12:52 PM 36.0 °F 29.6 °F 21.9 °F 57% 29.76 in 10.0 mi SSE 8.1 mph - N/A   Overcast
1:52 PM 37.9 °F 32.1 °F 19.9 °F 48% 29.74 in 10.0 mi South 8.1 mph - N/A   Overcast
2:52 PM 41.0 °F 33.9 °F 21.0 °F 45% 29.70 in 10.0 mi SSE 12.7 mph - N/A   Partly Cloudy
3:52 PM 37.9 °F 30.5 °F 23.0 °F 55% 29.69 in 10.0 mi SSE 11.5 mph - N/A   Clear
4:52 PM 36.0 °F 33.3 °F 21.9 °F 57% 29.70 in 10.0 mi ESE 3.5 mph - N/A   Clear
5:52 PM 34.0 °F 29.8 °F 21.9 °F 61% 29.71 in 10.0 mi East 4.6 mph - N/A   Clear
6:52 PM 32.0 °F 24.8 °F 21.0 °F 64% 29.72 in 10.0 mi ENE 8.1 mph - N/A   Clear
7:52 PM 28.0 °F 21.7 °F 21.9 °F 78% 29.73 in 10.0 mi ENE 5.8 mph - N/A   Mostly Cloudy
8:52 PM 26.6 °F 22.6 °F 21.2 °F 80% 29.66 in 10.0 mi North 3.5 mph - N/A   Mostly Cloudy
9:52 PM 25.0 °F 13.1 °F 19.9 °F 81% 29.75 in 10.0 mi NW 13.8 mph - N/A   Mostly Cloudy
10:52 PM 24.1 °F 12.5 °F 21.0 °F 88% 29.77 in 10.0 mi WNW 12.7 mph - N/A   Clear